Regional Weather Roundup
Issued by NWS

Home | Current Version | Previous Version | Text Only | Print | Product List | Glossary Off
Versions: 1 2 3 4 5 6 7 8 9 10 11 12 13 14 15 16 17 18 19 20 21 22 23 24 25 26 27 28 29 30 31 32 33 34 35 36 37 38 39 40 41 42 43 44 45 46 47 48 49 50

000
ASUS45 KTFX 011710
RWRMT
MONTANA REGIONAL WEATHER ROUNDUP
NATIONAL WEATHER SERVICE GREAT FALLS MT
1100 AM MDT SUN MAY 01 2016

NOTE: "FAIR" INDICATES FEW OR NO CLOUDS BELOW 12000 FEET WITH NO
SIGNIFICANT WEATHER AND/OR OBSTRUCTIONS TO VISIBILITY.

MTZ001>007-043-011800-
WEST OF THE DIVIDE

CITY           SKY/WX    TMP DP  RH WIND       PRES   REMARKS
KALISPELL      SUNNY     58  36  43 N6        30.27F
MISSOULA       SUNNY     57  38  48 MISG      30.27F
BUTTE          SUNNY     46  25  43 SE18G24   30.29F
MULLAN PASS    SUNNY     45  31  58 VRB5      30.26S
ANACONDA         N/A     48  28  46 SE6       30.28F
DEER LODGE       N/A     50  34  53 SE3       30.30F
EUREKA           N/A     52  36  54 NW3       30.31F
HAMILTON         N/A     52  36  54 NW5       30.26F
LIBBY            N/A     54  37  54 CALM      30.28F
PLAINS           N/A     54  42  63 CALM      30.25F
$$

MTZ008-052>055-011800-
SOUTHWEST MONTANA

CITY           SKY/WX    TMP DP  RH WIND       PRES   REMARKS
BOZEMAN        SUNNY     52  30  43 S6        30.29F
DILLON         SUNNY     47  30  51 MISG      30.27F
ENNIS          SUNNY     45  30  57 CALM      30.33F
TWIN BRIDGES     N/A     51  29  43 N6        30.23F
$$

MTZ009-010-012-014-046-048-049-054-011800-
EAST SLOPES AND CENTRAL MONTANA

CITY           SKY/WX    TMP DP  RH WIND       PRES   REMARKS
CUT BANK       SUNNY     53  36  52 S7        30.31F
GREAT FALLS    SUNNY     52  34  50 CALM      30.32F
HELENA         SUNNY     52  35  52 CALM      30.30F
CHOTEAU          N/A     54  32  43 SE9       30.32F
CONRAD           N/A     54  40  59 E5        30.30F
$$

MTZ011-013-016-021-045-047-050-051-011800-
NORTH CENTRAL MONTANA

CITY           SKY/WX    TMP DP  RH WIND       PRES   REMARKS
HAVRE          SUNNY     57  40  52 W7        30.32F
LEWISTOWN      SUNNY     54  27  35 E10       30.33F
N BAR RANCH      N/A     50  27  40 S5G12     30.35F
CHINOOK          N/A     57  37  47 CALM      30.32F
$$

MTZ017>020-022>027-061-062-011800-
NORTHEAST MONTANA

CITY           SKY/WX    TMP DP  RH WIND       PRES   REMARKS
GLASGOW        SUNNY     58  32  37 SW6       30.32F
JORDAN           N/A     57  31  37 MISG      30.33F
SIDNEY         SUNNY     59  36  41 CALM      30.32F
WOLF POINT     SUNNY     60  35  39 VRB3      30.32F
PLENTYWOOD       N/A     59  25  27 NW5       30.31F
POPLAR           N/A     57  34  41 CALM      30.33F
SCOBEY           N/A     61  26  26 S5        30.27F
$$

MTZ028>42-056>058-011800-
SOUTHCENTRAL AND SOUTHEAST MONTANA

CITY           SKY/WX    TMP DP  RH WIND       PRES   REMARKS
BAKER          MOSUNNY   55  28  35 VRB3      30.34F
BILLINGS       MOSUNNY   54  32  43 VRB3      30.33F
LIVINGSTON     SUNNY     52  30  43 E15G22    30.29F
MILES CITY     SUNNY     57  28  33 VRB5      30.34F
EKALAKA          N/A     54  26  34 NE8       30.28F
FORSYTH          N/A     55  28  35 E6        30.33F
LAUREL           N/A     55  31  40 NE1       30.28F
ROUNDUP          N/A     56  27  33 E3        30.21F
$$

REGIONAL REPORTS...DAKOTAS

CITY           SKY/WX    TMP DP  RH WIND       PRES   REMARKS
WILLISTON      SUNNY     60  29  30 VRB3      30.31F
MINOT          SUNNY     62  25  24 SW3       30.30F
DICKINSON      SUNNY     56  27  32 N10G17    30.29F
BEACH            N/A     57  27  30 N10       30.34F
CROSBY           N/A     59  25  27 N5        30.33F
WATFORD CITY     N/A     57  28  33 N5        30.32F
BISMARCK       SUNNY     57  28  33 NW7       30.31F
GRAND FORKS    SUNNY     60  29  30 NE10      30.27F
FARGO          SUNNY     58  30  34 NW6       30.26F
BUFFALO SD       N/A     55  27  34 NE10G17   30.26F
RAPID CITY     MOSUNNY   51  30  44 N14G24    30.32S
$$

REGIONAL REPORTS...WYOMING/IDAHO/WASHINGTON

CITY           SKY/WX    TMP DP  RH WIND       PRES   REMARKS
GILLETTE       SUNNY     47  26  44 NE3       30.33F
SHERIDAN       SUNNY     53  27  36 E5        30.34F
BUFFALO WY       N/A    N/A N/A N/A MISG      30.34F
CODY           MOSUNNY   48  28  46 NE7G16    30.32F
YELLOWSTONE LA   N/A     37  18  46 MISG      30.31F
IDAHO FALLS    SUNNY     51  28  41 CALM      30.22F
SALMON         SUNNY     54  36  50 N10       30.22F
BOISE          SUNNY     58  40  51 CALM      30.15F
SPOKANE        MOSUNNY   59  40  49 NE12      30.22F
$$

REGIONAL REPORTS...ALBERTA

CITY           SKY/WX    TMP DP  RH WIND       PRES   REMARKS
EDMONTON       SUNNY     64  25  22 W9        30.18F
CALGARY        PTSUNNY   61  34  36 W2        30.26F
LETHBRIDGE     MOSUNNY   59  34  38 SW9       30.28F
MEDICINE HAT   PTSUNNY   61  39  44 SW10      30.29F
WATERTON GATE    N/A     57  30  35 N5          N/A
MILK RIVER       N/A     57  36  44 S9          N/A
$$

REGIONAL REPORTS...SASKATCHEWAN

CITY           SKY/WX    TMP DP  RH WIND       PRES   REMARKS
SWIFT CURRENT  SUNNY     61  32  33 W8        30.27F
REGINA         MOSUNNY   66  27  22 NW8G17    30.26F
SASKATOON      PTSUNNY   66  36  32 W12       30.21F
VAL MARIE        N/A     61  28  29 SW8         N/A
ROCKGLEN         N/A     59  28  31 S6          N/A
$$



USA.gov is the U.S. government's official web portal to all federal, state and local government web resources and services.